Date,TemperatureHighF,TemperatureAvgF,TemperatureLowF,DewpointHighF,DewpointAvgF,DewpointLowF,HumidityHigh,HumidityAvg,HumidityLow,PressureMaxIn,PressureMinIn,WindSpeedMaxMPH,WindSpeedAvgMPH,GustSpeedMaxMPH,PrecipitationSumIn
2013-9-1,91.6,84.5,53.1,57.8,48.6,43.2,86,31,20,29.77,29.62,19,1,19,0.00
2013-9-2,85.1,76.8,52.0,57.6,53.4,48.6,89,46,30,29.84,29.70,16,2,19,0.00
2013-9-3,84.9,74.5,52.5,63.8,55.9,48.2,94,57,30,29.89,29.74,19,2,27,0.39
2013-9-4,85.5,78.1,52.9,60.1,51.6,45.3,93,43,26,29.96,29.78,16,1,19,0.01
2013-9-5,81.8,77.2,73.2,55.1,52.5,49.8,53,43,34,29.87,29.81,11,1,13,0.00
2013-9-6,84.7,75.1,51.7,59.4,53.7,48.8,92,50,30,29.95,29.76,12,1,16,0.00
2013-9-7,83.6,78.2,51.7,56.6,53.2,47.5,92,42,30,29.90,29.70,12,0,12,0.00
2013-9-8,83.0,71.1,51.6,61.5,56.7,49.1,94,63,36,29.83,29.68,17,1,18,0.02
2013-9-9,77.6,68.5,60.2,62.5,58.4,0.0,95,72,49,29.80,29.69,14,2,17,0.06
2013-9-10,76.0,69.3,59.6,64.3,61.1,56.0,92,76,55,29.81,29.69,8,0,8,0.16
2013-9-11,78.5,71.0,64.0,65.3,61.7,57.8,94,73,54,29.85,29.70,11,0,13,0.01
2013-9-12,77.2,71.0,62.3,62.1,58.7,52.7,92,66,47,29.84,29.72,12,1,14,0.01
2013-9-13,81.2,72.4,50.7,62.1,51.7,47.1,96,52,32,29.85,29.67,11,1,16,0.00
2013-9-14,81.1,73.7,46.5,56.0,50.6,42.7,95,46,32,29.81,29.67,12,1,17,0.00
2013-9-15,81.6,74.4,52.2,58.5,54.1,48.0,93,51,35,29.82,29.72,12,1,14,0.00
2013-9-16,78.3,71.0,53.6,60.1,56.2,51.6,94,61,44,29.93,29.81,13,1,14,0.01
2013-9-17,76.5,69.3,60.7,59.9,57.1,53.9,93,67,48,29.90,29.73,16,2,17,0.01
2013-9-18,79.8,71.6,62.0,61.7,58.4,55.2,87,64,44,29.79,29.60,16,2,19,0.00
2013-9-19,64.8,62.2,61.0,61.0,59.8,58.4,95,92,87,29.72,29.69,2,0,8,0.63
2013-9-20,70.8,63.6,58.9,62.5,59.1,56.3,93,86,67,29.85,29.73,11,1,13,0.16
2013-9-21,73.3,65.6,56.6,55.8,52.7,49.9,87,64,45,29.93,29.74,11,0,11,0.01
2013-9-22,77.2,69.9,44.6,57.8,48.2,40.1,97,49,29,29.84,29.62,14,1,15,0.01
2013-9-23,82.2,75.1,59.8,55.6,47.5,38.9,75,39,23,29.70,29.56,13,3,18,0.01
2013-9-24,81.2,70.8,43.8,44.3,37.0,28.7,78,33,16,29.97,29.79,14,1,14,0.00
2013-9-25,86.3,76.9,39.2,49.1,41.3,35.0,92,32,17,29.94,29.56,15,1,15,0.00
2013-9-26,87.6,78.7,47.4,54.3,46.3,40.4,90,35,21,29.74,29.50,12,1,12,0.00
2013-9-27,85.9,77.8,59.8,57.2,54.0,49.3,78,45,30,29.62,29.43,19,4,21,0.00
2013-9-28,74.4,67.3,53.3,45.2,33.0,19.0,67,29,18,29.98,29.70,13,4,16,0.00
2013-9-29,79.4,70.1,38.6,51.2,39.0,32.4,95,36,20,30.22,29.83,14,2,16,0.00
2013-9-30,82.0,68.3,40.2,42.2,34.1,28.1,75,32,15,29.95,29.69,16,3,16,0.00